Regional Weather Roundup
Issued by NWS

Home | Current Version | Previous Version | Text Only | Print | Product List | Glossary Off
Versions: 1 2 3 4 5 6 7 8 9 10 11 12 13 14 15 16 17 18 19 20 21 22 23 24 25 26 27 28 29 30 31 32 33 34 35 36 37 38 39 40 41 42 43 44 45 46 47 48 49 50

364
ASUS43 KTOP 220508
RWRKS

WEATHER ROUNDUP FOR KANSAS
NATIONAL WEATHER SERVICE GOODLAND KS
1200 AM CDT FRI MAY 22 2015

NOTE:  "FAIR" INDICATES FEW OR NO CLOUDS BELOW 12,000 FEET WITH NO
SIGNIFICANT WEATHER AND/OR OBSTRUCTIONS TO VISIBILITY.

KSZ001>006-013>018-027>032-041>047-220600-
NORTHWEST KANSAS

CITY           SKY/WX    TMP DP  RH WIND       PRES   REMARKS
GOODLAND       CLOUDY    50  45  83 SE8       30.20S
HAYS           MOCLDY    48  39  71 E9        30.21F
HILL CITY      CLOUDY    48  44  86 CALM      30.22S
RUSSELL        MOCLDY    50  45  83 SE6       30.21F
$$

KSZ061>065-074>080-084>089-220600-
SOUTHWEST KANSAS

CITY           SKY/WX    TMP DP  RH WIND       PRES   REMARKS
DODGE CITY     CLOUDY    54  46  74 SE9       30.22R
ELKHART          N/A     50  45  83 SE6         N/A
GARDEN CITY    CLOUDY    53  46  77 SE12      30.19R
GREAT BEND     CLOUDY    54  45  71 E6        30.21F
LIBERAL        CLOUDY    54  45  71 E13       30.18F
PRATT          CLOUDY    52  45  76 SE3       30.22S
$$

KSZ066>073-081>083-090>101-220600-
SOUTHEAST KANSAS

CITY           SKY/WX    TMP DP  RH WIND       PRES   REMARKS
CHANUTE        CLEAR     49  47  93 CALM      30.24S
COFFEYVILLE    CLEAR     50  49  96 CALM      30.23S
HUTCHINSON     MOCLDY    51  45  79 E3        30.23F
MEDICINE LODGE   N/A     55  49  80 SE5       30.20F
NEWTON         PTCLDY    52  43  71 SE3       30.25F
PARSONS        CLEAR     49  48  97 CALM      30.25S
WICHITA INTL   MOCLDY    54  46  74 E7        30.22F
WICHITA JABRA  MOCLDY    50  45  83 CALM      30.23F
WICHITA MCCONL MOCLDY    55  46  71 E6        30.22F
WINFIELD       PTCLDY    52  48  86 E5        30.23F
$$

KSZ007>012-019>026-033>040-048>060-102>105-220600-
NORTHEAST KANSAS

CITY           SKY/WX    TMP DP  RH WIND       PRES   REMARKS
CONCORDIA      MOCLDY    54  42  64 SW7       30.23F
EMPORIA        CLEAR     51  45  79 SW5       30.24S
LAWRENCE       PTCLDY    48  45  89 NW3       30.23R
MANHATTAN      PTCLDY    50  46  86 CALM      30.24R
MARYSVILLE     MOCLDY    50  46  87 S3        30.23S
OLATHE IND     PTCLDY    53  45  74 SW5       30.24R
OLATHE EXE     MOCLDY    53  47  79 SW3       30.22R
SALINA         PTCLDY    53  47  79 SE3       30.23F
TOPEKA BILLARD PTCLDY    55  48  77 CALM      30.24R
TOPEKA FORBES  PTCLDY    54  47  77 SW6       30.23R
$$



USA.gov is the U.S. government's official web portal to all federal, state and local government web resources and services.